sat.trackr.live / text

‹ back to catalog

STARLINK-11611 [DTC]

NORAD 63138 · 2025-043G

PAYLOAD ACTIVE UNKNOWN

§ Identity

Operator
Country
US
Launch date
2025-03-03
Launch site
AFETR
Launch vehicle
Mass (kg)
RCS (m²)

Purposes: comms

External: N2YO · Heavens-Above · Gunter

§ Orbital elements

Epoch: 2026-05-24T08:31:21.459072Z

Period
91.67 min
Inclination
43.0004°
Eccentricity
0.0001063
Mean motion
15.70844249 rev/d
Perigee alt
355.8 km
Apogee alt
357.2 km
Semi-major
6,734.6 km
B*
1.0929e-3
RAAN
154.5128°
Arg perigee
269.1576°
Mean anomaly
90.9170°
Rev number
7,137

§ Raw data

STARLINK-11611 [DTC]1 63138U 25043G   26144.35510948  .00142228  00000+0  10929-2 0  99982 63138  43.0004 154.5128 0001063 269.1576  90.9170 15.70844249 71374

JSON: /api/v1/satellites/63138 · /tle

For live sub-satellite position, see the globe view (requires WebGL).

§ Visibility from observer

Set your observer location to see the next 7 days of passes ≥ 10°. The values pass through the URL so the page stays shareable.

No JS? Fill the form by hand. The geolocation button needs JavaScript.